Regional Weather Roundup
Issued by NWS

Home | Current Version | Previous Version | Text Only | Print | Product List | Glossary Off
Versions: 1 2 3 4 5 6 7 8 9 10 11 12 13 14 15 16 17 18 19 20 21 22 23 24 25 26 27

000
ASUS45 KCYS 172310
RWRWY

WYOMING REGIONAL WEATHER ROUNDUP
NATIONAL WEATHER SERVICE CHEYENNE WY
500 PM MDT THU APR 17 2014

NOTE:  "FAIR" INDICATES FEW OR NO CLOUDS BELOW 12,000 FEET
WITH NO SIGNIFICANT WEATHER AND/OR OBSTRUCTIONS TO VISIBILITY.

WYZ001-180000-
YELLOWSTONE NATIONAL PARK

CITY           SKY/WX    TMP DP  RH WIND       PRES   REMARKS
LK YELLOWSTONE   N/A     44  20  38 VRB6      30.00S
W YELLOWSTONE  NOT AVBL

$$
WYZ002>013-054>058-071-098>099-180000-
NORTHERN WYOMING

CITY           SKY/WX    TMP DP  RH WIND       PRES   REMARKS
JACKSON        SUNNY     52  19  28 SW8       29.97F
CODY           SUNNY     59  21  23 W12G21    29.84F
GREYBULL       MOSUNNY   63  23  21 SE9       29.83F
WORLAND        MOSUNNY   63  22  20 E8        29.84F
SHERIDAN       PTSUNNY   61  29  29 SE7       29.86F
BUFFALO        PTSUNNY   58  22  24 CALM      29.89F
GILLETTE       PTSUNNY   61  25  25 SW15      29.88F
HULETT         FAIR      55  30  38 SW6       29.94
NEWCASTLE      FAIR      52  32  46 SE12      29.97

$$
WYZ014>020-022>026-101>103-180000-
CENTRAL WYOMING

CITY           SKY/WX    TMP DP  RH WIND       PRES   REMARKS
BIG PINEY      MOSUNNY   56  15  20 VRB6      30.00F
PINEDALE       MOCLDY    52  23  32 NE7       30.01S
DUBOIS         FAIR      50  16  25 NW16G24   29.96S
LANDER         PTSUNNY   61  24  24 N5        29.88F
RIVERTON       MOSUNNY   59  16  18 VRB3      29.90F
CASPER         SUNNY     63  21  20 SW17G25   29.90F
DOUGLAS        SUNNY     59  32  36 SE17      29.94F

$$
WYZ021-027>030-104>119-180000-
SOUTHERN WYOMING

CITY           SKY/WX    TMP DP  RH WIND       PRES   REMARKS
EVANSTON       MOSUNNY   59  23  25 SW22G31   30.00F
KEMMERER       CLEAR     55  21  26 W14G20    30.01F
FORT BRIDGER   FAIR      63  22  20 W17G25    30.03S
ROCK SPRINGS   NOT AVBL
DIXON          FAIR      60  20  21 SW13G21   30.06S
RAWLINS        SUNNY     58  15  18 SW23G30   29.99F
SARATOGA       FAIR      55  18  22 SW23      30.03F
LARAMIE        SUNNY     54  15  21 SW16G24   30.01S
CHEYENNE       MOSUNNY   57  22  25 SW14G23   30.00F
TORRINGTON     SUNNY     59  32  36 E18       29.95F
PINE BLUFFS    FAIR      59  25  27 SE3       30.01S

$$



USA.gov is the U.S. government's official web portal to all federal, state and local government web resources and services.